Change the Weather History Date:

Monday, January 6, 2014

  Actual Average Record
Temperature  
Mean Temperature 38 °F -  
Max Temperature 41 °F - - ()
Min Temperature 35 °F - - ()
Degree Days  
Heating Degree Days 27    
Moisture  
Dew Point 35 °F    
Average Humidity 85    
Maximum Humidity 93    
Minimum Humidity 73    
Precipitation  
Precipitation 0.55 in - - ()
Sea Level Pressure  
Sea Level Pressure 29.76 in    
Wind  
Wind Speed 15 mph (ESE)    
Max Wind Speed 26 mph    
Max Gust Speed 44 mph    
Visibility 7 miles    
Events Rain    
T = Trace of Precipitation, MM = Missing Value Source: NWS Daily Summary

Daily Weather History Graph

Daily Weather History Graph

Search for Another Location

Airport or City:

Trip Planner

Search our weather history database for the weather conditions in past years. The results will help you decide how hot, cold, wet, or windy it might be!

Date:

Astronomy

Jan. 06, 2014 Rise Set
Actual Time 10:00 AM AKST 4:02 PM AKST
Civil Twilight 9:03 AM AKST 5:00 PM AKST
Nautical Twilight 8:05 AM AKST 5:57 PM AKST
Astronomical Twilight 7:13 AM AKST 6:49 PM AKST
Moon 11:28 AM AKST (1/6) No Moon Set
Length of Visible Light 7h 57m
Length of Day
6h 01m
Waxing Crescent, 36% of the Moon is Illuminated
Jan 6
Waxing Crescent
Jan 7
First Quarter
Jan 15
Full
Jan 23
Last Quarter
Jan 30
New

Hourly Weather History & Observations

Time (AKST) Temp. Windchill Dew Point Humidity Pressure Visibility Wind Dir Wind Speed Gust Speed Precip Events Conditions
12:04 AM 41.0 °F 33.5 °F 36.0 °F 82% 29.80 in 4.0 mi East 13.8 mph 36.8 mph 0.01 in Rain Light Rain
12:45 AM 39.9 °F 29.0 °F 36.0 °F 86% 29.78 in 5.0 mi ESE 26.5 mph 35.7 mph 0.02 in Rain Light Rain
12:53 AM 39.9 °F 32.1 °F 35.1 °F 83% 29.79 in 5.0 mi ESE 13.8 mph 35.7 mph 0.03 in Rain Light Rain
1:53 AM 41.0 °F 32.2 °F 35.1 °F 79% 29.79 in 5.0 mi ESE 18.4 mph 32.2 mph 0.04 in Rain Light Rain
2:53 AM 39.9 °F 31.8 °F 35.1 °F 83% 29.77 in 5.0 mi ESE 15.0 mph 39.1 mph 0.05 in Rain Light Rain
3:02 AM 41.0 °F 33.5 °F 35.1 °F 79% 29.76 in 6.0 mi ESE 13.8 mph 38.0 mph 0.00 in Rain Light Rain
3:37 AM 41.0 °F 32.2 °F 35.1 °F 79% 29.76 in 5.0 mi ESE 18.4 mph 40.3 mph 0.01 in Rain Light Rain
3:53 AM 41.0 °F 31.9 °F 35.1 °F 79% 29.76 in 5.0 mi ESE 19.6 mph 35.7 mph 0.02 in Rain Light Rain
4:53 AM 39.9 °F 30.8 °F 36.0 °F 86% 29.75 in 4.0 mi ESE 18.4 mph 34.5 mph 0.05 in Rain Light Rain
5:15 AM 39.9 °F 31.4 °F 36.0 °F 86% 29.74 in 2.5 mi East 16.1 mph 36.8 mph 0.03 in Rain Rain
5:25 AM 41.0 °F 32.5 °F 35.1 °F 79% 29.74 in 4.0 mi ESE 17.3 mph 42.6 mph 0.04 in Rain Light Rain
5:53 AM 41.0 °F 32.2 °F 36.0 °F 82% 29.74 in 3.0 mi ESE 18.4 mph 43.7 mph 0.06 in Rain Light Rain
6:29 AM 41.0 °F 32.8 °F 36.0 °F 82% 29.74 in 2.5 mi ESE 16.1 mph 34.5 mph 0.04 in Rain Rain
6:42 AM 39.9 °F 33.4 °F 36.0 °F 86% 29.73 in 3.0 mi ESE 10.4 mph 34.5 mph 0.06 in Rain Rain
6:53 AM 41.0 °F 32.8 °F 36.0 °F 82% 29.73 in 3.0 mi SE 16.1 mph 34.5 mph 0.08 in Rain Rain
7:32 AM 41.0 °F 30.7 °F 35.1 °F 79% 29.73 in 6.0 mi ESE 25.3 mph 35.7 mph 0.06 in Rain Light Rain
7:53 AM 41.0 °F 33.1 °F 36.0 °F 82% 29.74 in 4.0 mi East 15.0 mph 36.8 mph 0.08 in Rain Light Rain
8:00 AM 41.0 °F 32.2 °F 36.0 °F 82% 29.73 in 5.0 mi ESE 18.4 mph 31.1 mph 0.00 in Rain Light Rain
8:53 AM 39.9 °F 31.4 °F 35.1 °F 83% 29.75 in 4.0 mi East 16.1 mph 31.1 mph 0.07 in Rain Rain
9:53 AM 39.9 °F 31.1 °F 34.0 °F 79% 29.77 in 4.0 mi East 17.3 mph 28.8 mph 0.07 in Rain Light Rain
10:25 AM 39.9 °F 32.5 °F 34.0 °F 79% 29.76 in 8.0 mi East 12.7 mph 27.6 mph 0.00 in Rain Light Rain
10:53 AM 39.9 °F 31.4 °F 33.1 °F 77% 29.77 in 10.0 mi East 16.1 mph 28.8 mph 0.00 in Rain Light Rain
11:53 AM 39.9 °F 31.1 °F 32.0 °F 73% 29.76 in 10.0 mi East 17.3 mph 31.1 mph 0.00 in Rain Light Rain
12:53 PM 36.0 °F 28.5 °F 34.0 °F 93% 29.77 in 10.0 mi ESE 10.4 mph 23.0 mph 0.00 in Rain Light Rain
1:53 PM 37.0 °F 30.4 °F 34.0 °F 89% 29.78 in 10.0 mi SSE 9.2 mph 18.4 mph 0.00 in   Overcast
2:32 PM 37.0 °F 30.4 °F 34.0 °F 89% 29.77 in 8.0 mi SE 9.2 mph 16.1 mph 0.00 in Rain Light Rain
2:53 PM 37.0 °F 31.6 °F 35.1 °F 93% 29.78 in 10.0 mi SSE 6.9 mph 17.3 mph 0.00 in   Overcast
3:53 PM 37.0 °F 31.6 °F 34.0 °F 89% 29.78 in 10.0 mi SSE 6.9 mph - N/A   Overcast
4:51 PM 37.4 °F 32.1 °F 33.8 °F 87% 29.77 in 10.0 mi SSE 6.9 mph - N/A   Overcast
4:53 PM 37.0 °F 29.8 °F 34.0 °F 89% 29.77 in 10.0 mi SSE 10.4 mph - N/A   Overcast
5:01 PM 37.0 °F 31.0 °F 34.0 °F 89% 29.77 in 10.0 mi SE 8.1 mph - N/A   Overcast
5:53 PM 37.0 °F 31.6 °F 34.0 °F 89% 29.76 in 10.0 mi SE 6.9 mph - 0.00 in   Overcast
6:53 PM 37.0 °F 31.6 °F 34.0 °F 89% 29.76 in 10.0 mi SE 6.9 mph - N/A   Overcast
7:09 PM 37.0 °F 31.6 °F 34.0 °F 89% 29.75 in 10.0 mi Variable 6.9 mph - 0.00 in Rain Light Rain
7:53 PM 37.0 °F 31.6 °F 34.0 °F 89% 29.75 in 10.0 mi SE 6.9 mph - 0.00 in   Overcast
8:01 PM 37.0 °F 32.4 °F 34.0 °F 89% 29.74 in 10.0 mi Variable 5.8 mph - N/A   Overcast
8:53 PM 37.0 °F 31.0 °F 34.0 °F 89% 29.73 in 10.0 mi SE 8.1 mph - N/A   Overcast
9:53 PM 37.0 °F 31.6 °F 34.0 °F 89% 29.73 in 10.0 mi SE 6.9 mph - N/A   Overcast
10:53 PM 37.9 °F 32.7 °F 34.0 °F 86% 29.73 in 10.0 mi SE 6.9 mph - N/A   Overcast
11:51 PM 35.6 °F 29.2 °F 33.8 °F 93% 29.72 in 10.0 mi East 8.1 mph - N/A   Overcast
11:53 PM 37.0 °F 31.0 °F 34.0 °F 89% 29.73 in 10.0 mi East 8.1 mph - N/A   Overcast